Lapse_Rate
-0.1 -0.5 -0.8 -0.9 -1.1 -1.4 -1.3 -1.4 -1.4 -1.7 -1.8 -2.0 -2.3 -2.5 -3.1 -3.5 -3.1 2.6 7.6 6.6 5.2 2.1 3.3 9.0 9.4 9.3 9.2 8.5 8.5 8.1 6.5 6.5 6.5 6.5 6.5 7.4 6.6 7.9 8.5 7.9 8.0 8.3 8.3 8.9 9.5
-0.1 -0.5 -0.8 -1.1 -1.1 -1.3 -1.6 -1.8 -1.9 -1.8 -1.9 -2.2 -2.4 -2.8 -2.8 -3.3 2.4 6.9 4.7 2.0 1.6 2.2 8.8 8.9 8.5 8.8 8.1 8.0 8.0 6.9 6.5 6.5 6.5 6.6 6.5 7.1 7.1 7.4 7.3 7.4 7.5 7.9 8.9 9.2 9.4
0.4 -0.0 -0.5 -0.8 -1.3 -1.6 -1.8 -2.0 -2.1 -2.2 -2.1 -2.4 -2.5 -2.9 -2.9 -2.2 6.0 8.5 2.1 1.6 1.6 3.1 9.7 9.4 9.1 8.6 7.5 7.9 7.5 7.0 6.5 6.5 6.8 7.3 7.5 7.0 7.1 7.8 7.1 6.5 7.5 7.6 8.4 8.9 9.1
0.1 -0.2 -0.6 -0.9 -1.1 -1.4 -2.0 -2.0 -2.3 -2.4 -2.6 -2.5 -2.7 -2.9 -3.0 3.2 6.5 8.8 2.3 1.6 2.8 8.7 9.5 9.0 8.6 7.6 6.8 6.5 7.5 6.5 6.9 7.1 7.2 7.6 7.4 6.7 7.6 7.1 7.3 7.4 8.4 8.6 8.8 8.9 8.9
0.2 -0.1 -0.4 -0.9 -1.2 -1.4 -2.0 -2.1 -2.3 -2.7 -2.8 -2.5 -2.8 -2.8 2.4 7.9 8.1 6.2 2.5 2.8 6.8 9.6 9.0 8.6 7.9 7.6 6.5 6.8 7.1 6.5 6.6 7.2 7.4 7.6 7.5 7.6 7.0 6.8 7.2 8.2 8.7 8.9 8.8 8.8 8.9
-0.2 -0.4 -0.5 -0.9 -1.1 -1.5 -1.9 -2.4 -2.6 -2.9 -3.1 -2.9 -2.7 -3.4 6.6 6.8 8.2 7.4 8.3 7.0 9.5 9.4 9.0 8.9 8.1 8.3 7.3 6.9 6.6 7.1 6.9 6.9 7.4 7.3 7.4 6.8 6.9 7.3 7.6 8.4 8.4 8.5 8.5 8.8 8.8
-0.4 -0.4 -0.7 -1.1 -1.5 -1.7 -2.1 -2.5 -3.0 -3.0 -2.8 -2.7 -2.7 2.4 7.9 8.0 8.3 8.4 9.8 9.6 9.7 9.5 8.7 9.1 9.0 8.1 7.8 6.5 7.7 7.2 6.5 6.5 6.8 7.1 6.6 7.4 6.5 6.5 7.9 8.3 8.1 8.3 8.5 8.6 8.8
-0.0 -0.7 -1.0 -1.3 -1.7 -2.1 -2.7 -2.9 -2.8 -1.9 -2.2 -2.4 -2.3 5.0 7.7 8.4 8.1 7.5 9.7 9.4 9.6 9.7 9.3 9.4 9.3 8.4 7.8 7.9 7.2 6.5 6.5 6.5 6.5 6.7 7.0 7.0 6.5 6.5 8.1 8.0 7.7 8.1 8.4 8.4 8.7
0.0 -0.7 -1.1 -1.6 -2.2 -2.7 -3.0 -3.2 -1.7 -1.1 -1.3 -1.4 4.6 7.8 7.5 4.6 8.4 9.7 9.8 9.0 9.3 9.4 9.3 9.3 9.0 7.8 7.7 6.5 6.5 6.5 6.5 6.5 6.5 6.8 6.5 6.5 6.5 6.7 8.0 7.8 7.6 8.0 8.2 8.4 8.6
-0.1 -0.8 -1.6 -1.9 -2.5 -3.0 -3.4 -3.0 -1.0 -0.7 2.1 4.5 5.8 7.8 8.4 8.0 9.1 9.3 9.8 9.4 8.7 8.7 8.3 8.1 7.9 6.5 6.5 6.5 6.5 6.5 6.5 6.5 6.5 6.5 6.5 6.5 6.5 6.5 7.6 7.6 7.5 7.8 8.1 8.3 8.4
0.1 -0.9 -1.7 -2.2 -2.8 -3.2 -0.4 5.4 7.3 7.9 8.7 7.8 7.9 7.7 8.2 9.1 8.4 9.0 9.3 8.9 8.7 8.0 6.5 7.3 6.5 6.5 6.5 6.5 6.5 6.5 6.5 6.5 6.5 6.5 6.5 6.5 6.5 6.5 7.1 7.4 7.4 7.7 7.9 8.1 8.3
0.1 -1.0 -1.7 -2.2 -3.0 -3.2 1.6 8.7 8.4 8.1 7.1 8.5 8.4 8.3 8.6 8.8 7.8 8.5 9.4 7.7 7.3 6.5 6.7 6.5 6.5 6.5 6.5 6.5 6.5 6.5 6.5 6.5 6.5 6.5 6.5 6.5 6.5 6.5 6.7 7.0 7.4 7.6 7.8 8.1 8.4
-0.0 -1.0 -2.2 -2.6 -3.4 1.5 8.2 8.8 7.6 7.8 7.1 7.6 8.3 8.1 8.3 8.6 7.5 7.8 8.7 7.9 6.7 6.5 6.5 6.5 6.5 6.6 6.5 6.5 6.5 6.5 6.5 6.5 6.5 6.5 6.5 6.5 6.5 6.5 6.5 7.2 7.5 7.8 8.1 8.3 8.3
-0.2 -1.1 -2.5 -3.7 1.4 6.4 8.9 7.4 7.4 7.6 6.5 6.5 6.9 7.9 8.3 8.4 7.0 8.7 8.9 7.9 6.7 6.5 6.5 6.5 6.7 6.5 6.5 6.5 6.5 6.5 6.5 6.5 6.5 6.5 6.5 6.5 6.5 6.5 6.5 6.5 6.6 7.5 7.9 8.2 8.3
-0.4 -1.5 -2.9 -4.0 4.7 8.3 7.8 7.6 7.9 8.7 6.5 6.5 6.8 9.0 8.4 7.4 7.6 7.5 8.9 8.0 6.5 6.5 6.5 6.5 6.5 6.5 6.5 6.5 6.5 6.5 6.5 6.5 6.5 6.5 6.5 6.5 6.5 6.5 6.5 6.5 6.5 7.1 7.7 8.2 8.4
-1.1 -2.2 -3.6 0.2 3.6 7.7 6.9 7.8 8.5 6.5 6.5 6.5 7.0 6.6 6.6 7.2 7.1 7.8 7.7 8.3 7.8 6.5 6.5 6.5 7.2 6.6 6.5 6.5 6.5 6.5 6.5 6.5 6.5 6.5 6.5 6.5 6.5 6.5 6.5 6.5 6.5 7.0 7.7 8.0 8.4
-1.8 -3.4 -3.2 2.5 8.7 6.2 7.4 8.9 6.5 6.5 6.5 6.5 6.5 6.5 6.5 6.5 6.5 6.5 6.5 6.5 6.5 6.5 6.5 6.5 6.5 6.6 6.9 6.5 6.5 6.5 6.5 6.5 6.5 6.5 6.5 6.5 6.5 6.5 6.5 6.5 6.5 6.6 7.5 8.0 8.4
-2.6 -4.4 -0.6 4.2 5.3 6.0 8.8 6.7 6.5 6.5 6.5 6.5 6.5 6.5 6.5 6.5 6.5 6.5 6.5 6.5 6.5 6.5 6.5 6.5 6.5 6.5 6.5 6.5 6.5 6.5 6.5 6.5 6.5 6.5 6.5 6.5 6.5 6.5 6.5 7.0 7.3 7.4 7.6 8.0 8.4
-3.5 6.1 6.7 7.4 5.4 6.2 8.1 6.5 6.5 6.5 6.5 6.5 6.5 6.5 6.5 6.5 6.5 6.5 6.5 6.5 6.5 6.5 6.5 6.5 6.5 6.5 6.5 6.5 6.5 6.5 6.5 6.5 6.5 6.5 6.5 6.5 6.5 6.5 6.5 6.5 6.9 7.1 7.5 7.7 8.1
3.7 8.5 8.9 6.2 6.4 8.7 6.8 6.5 6.5 6.6 6.6 6.5 6.5 6.5 6.5 6.5 6.5 6.5 6.5 6.5 6.5 6.6 6.9 6.5 6.5 6.5 6.5 6.7 6.6 6.5 6.5 6.5 6.5 6.5 6.5 6.5 6.5 6.5 6.5 6.5 6.5 6.6 7.1 7.5 8.0
6.0 8.2 7.6 6.9 7.5 8.2 6.5 6.5 6.5 7.3 7.2 6.5 6.5 6.5 6.5 6.5 6.5 6.5 6.5 6.5 6.5 6.5 6.8 6.5 6.5 6.5 6.5 6.5 6.5 6.5 6.5 6.5 6.5 6.5 6.5 6.5 6.5 6.5 6.5 6.5 6.5 6.7 7.3 7.6 7.9
8.5 6.5 8.1 7.6 7.1 7.0 6.5 6.5 3.7 6.7 7.4 6.5 6.5 6.5 6.5 6.5 6.5 6.5 6.5 6.5 7.2 7.0 6.5 6.5 6.5 6.5 6.5 6.5 6.5 6.5 6.5 6.5 6.5 6.5 6.5 6.5 6.5 6.5 6.5 6.6 7.0 7.1 7.5 7.8 8.0
8.2 7.9 8.3 7.9 6.5 6.5 6.7 6.5 6.9 6.5 6.5 6.5 6.5 6.5 6.5 6.5 6.5 6.5 6.5 7.0 7.2 6.6 6.5 6.5 6.5 6.5 6.5 6.5 6.5 6.5 6.5 6.5 6.5 6.5 6.5 6.5 6.5 6.5 6.8 6.7 7.3 7.3 7.6 7.8 8.0
8.3 6.5 8.0 8.4 8.0 6.6 6.5 6.5 6.5 7.3 6.8 7.0 6.5 6.7 6.5 6.5 6.5 6.5 6.5 6.6 7.2 7.1 6.2 6.8 6.5 6.5 6.5 6.5 6.5 6.5 6.5 6.5 6.5 6.5 6.5 6.5 6.5 6.5 6.5 6.5 7.0 7.4 7.7 7.9 7.9
8.3 6.8 7.6 6.5 6.7 6.5 6.6 6.5 6.5 6.5 6.9 7.2 6.5 6.5 6.5 6.5 6.5 6.5 6.5 6.5 6.8 6.4 6.9 6.5 6.5 6.5 6.5 6.5 6.5 6.5 6.5 6.5 6.5 6.5 6.5 6.5 6.5 6.5 6.5 6.5 7.0 7.4 7.6 7.7 7.9
7.8 7.3 8.0 7.1 7.2 6.6 6.5 6.5 6.5 6.5 6.5 6.5 6.5 6.5 6.5 6.5 6.5 6.5 6.5 6.5 6.5 6.6 6.5 6.5 6.5 6.5 6.5 6.5 6.5 6.5 6.5 6.5 6.5 6.5 6.5 6.5 6.5 6.5 7.1 7.2 7.1 7.3 7.4 7.5 7.7
8.2 7.5 8.2 5.7 6.7 6.5 6.5 6.5 6.5 6.6 7.0 7.1 6.7 6.5 6.5 6.6 7.3 7.4 7.5 7.3 6.9 6.5 6.5 6.5 6.5 6.5 6.5 6.5 6.5 6.5 6.5 6.5 6.5 6.5 6.5 6.5 6.5 6.6 6.5 6.8 7.0 7.2 7.5 7.5 7.8
Wind_Speed
19 19 19 20 20 19 16 14 16 17 17 18 18 15 16 16 20 6 6 4 4 20 10 10 9 8 6 2 2 4 4 6 8 7 9 10 11 8 9 14 5 2 9 20 19
19 19 20 21 21 21 20 19 15 14 16 17 17 15 14 14 9 9 6 4 14 17 15 14 11 10 5 3 4 5 4 6 5 9 9 10 7 10 10 12 9 10 17 20 18
18 19 20 20 21 22 21 20 18 15 15 15 15 14 14 14 6 4 5 8 19 18 10 7 7 8 5 4 2 4 3 4 7 5 6 10 8 7 11 8 10 16 22 19 18
19 18 18 19 21 22 23 21 19 17 15 13 12 13 16 6 0 5 5 14 13 10 10 9 9 7 4 2 2 5 3 5 5 5 8 9 10 6 4 7 12 19 21 20 17
22 22 22 21 21 22 23 22 20 18 16 13 9 9 7 6 4 6 11 15 10 11 11 10 11 6 5 2 5 2 5 4 0 5 7 8 8 7 7 10 14 20 20 18 16
25 23 23 23 22 23 23 23 22 17 15 12 7 7 5 4 2 7 9 15 9 8 6 8 6 4 2 2 4 2 4 4 3 8 5 7 7 7 10 13 16 20 20 18 16
23 25 24 24 23 23 23 23 23 17 10 9 7 3 3 5 1 9 11 9 8 6 6 7 6 8 2 5 1 1 5 5 6 7 5 8 8 9 14 15 17 19 17 16 15
23 24 26 25 25 24 24 22 19 13 1 8 9 5 2 4 4 7 7 8 6 3 1 3 6 8 7 2 5 7 4 4 5 9 4 11 8 11 14 15 16 18 17 16 16
24 24 26 26 24 24 21 19 8 1 2 7 7 6 8 6 7 9 9 8 8 5 3 5 8 7 6 11 10 9 10 10 7 6 5 10 9 11 16 13 15 17 17 16 16
24 25 26 25 25 23 23 7 3 5 6 6 5 5 7 9 7 8 8 5 6 10 8 9 8 9 11 12 13 12 13 15 6 4 8 10 5 5 13 14 13 15 16 16 17
25 25 28 26 25 22 13 4 5 6 8 7 3 4 7 4 7 8 9 8 6 9 9 11 10 15 16 14 6 6 9 8 8 1 5 9 6 7 10 12 14 14 16 17 17
26 27 27 28 26 21 6 2 5 4 3 2 5 5 3 2 10 10 11 11 10 11 7 8 14 9 3 4 9 7 11 8 7 2 4 2 7 10 10 11 11 13 15 17 17
25 27 26 27 28 7 4 5 3 3 5 5 2 3 4 8 7 12 14 6 11 10 14 11 5 10 11 11 12 11 10 7 6 5 5 3 8 7 9 10 10 12 14 15 17
27 26 24 30 7 3 3 1 6 5 5 7 8 6 7 4 6 7 6 6 7 12 9 9 9 12 10 11 10 14 9 5 10 7 11 8 7 8 9 12 14 15 16 17 18
26 24 20 13 6 4 4 6 2 4 5 6 9 3 3 7 13 6 6 8 8 9 8 7 11 10 12 11 9 10 5 9 9 13 16 12 8 5 8 10 16 17 18 19 19
25 23 19 4 4 3 4 4 5 7 4 8 7 9 11 6 4 9 9 4 3 6 8 3 1 7 12 7 11 4 8 10 8 12 13 16 14 11 10 12 10 16 18 19 19
27 26 7 2 2 2 5 4 6 6 4 9 10 11 10 8 8 12 12 10 5 9 9 8 11 5 5 11 9 11 12 8 11 11 13 15 12 14 1 6 6 10 17 19 19
31 22 6 5 2 4 5 6 7 2 3 4 6 9 8 5 5 7 10 8 3 4 5 8 11 13 11 13 9 16 16 10 14 13 14 11 9 15 11 13 7 9 7 16 19
32 3 2 1 3 4 5 8 2 3 2 8 9 12 8 6 2 6 1 4 3 3 4 5 4 3 5 6 9 11 13 15 16 8 10 12 12 18 9 11 8 4 11 11 17
6 3 3 1 2 5 6 2 2 1 2 5 8 4 11 6 9 9 7 2 1 2 5 2 4 4 7 7 7 11 8 10 9 14 13 14 11 10 18 15 8 6 6 10 13
4 4 4 2 5 5 7 3 5 3 3 2 4 7 5 7 3 5 3 5 3 0 3 4 7 10 8 10 7 9 11 10 11 13 11 13 9 11 4 6 3 4 3 5 11
4 4 3 4 6 2 6 4 1 4 2 4 5 7 4 4 4 3 6 4 5 3 3 1 5 5 7 6 1 5 7 8 10 14 10 12 1 8 7 5 6 6 5 6 7
5 3 3 3 5 7 4 7 2 5 1 3 4 3 2 4 3 6 6 4 5 0 1 1 6 8 8 9 5 6 2 4 8 10 12 12 11 6 10 8 9 8 8 8 6
4 4 4 4 2 7 9 9 8 3 5 5 7 5 5 4 3 6 7 4 3 3 3 3 3 9 6 8 5 8 6 1 9 9 14 13 7 6 10 9 10 10 9 10 11
3 1 4 5 7 7 7 11 11 6 3 3 5 3 4 5 5 5 4 7 5 4 2 3 6 5 2 3 2 2 5 6 8 8 8 3 9 8 7 7 8 8 7 8 9
4 4 3 3 3 8 7 10 11 7 4 5 4 5 3 2 3 7 5 5 1 2 2 2 3 5 9 4 7 10 11 10 11 10 9 12 9 5 3 4 7 7 6 7 7
0 2 5 4 8 9 11 10 11 11 4 2 8 5 4 6 6 6 4 4 4 1 2 3 3 6 13 6 8 13 15 15 10 5 9 12 7 6 1 5 6 7 6 6 5
Wind_Direction
344 340 336 333 332 330 331 331 329 327 325 323 325 329 326 323 305 232 252 77 157 176 223 157 181 186 205 225 164 262 220 150 131 139 130 133 119 100 102 134 121 93 140 135 141
341 337 333 331 329 327 327 326 325 324 321 322 323 325 322 322 289 254 82 119 153 180 179 180 176 187 207 210 188 265 226 75 86 93 141 148 139 136 144 133 121 114 113 133 147
339 337 333 331 328 326 325 324 322 321 316 318 322 322 317 307 264 89 106 155 164 190 195 209 186 218 233 196 159 139 66 111 133 134 148 143 143 155 141 169 145 142 142 150 156
336 333 331 329 327 326 324 324 321 318 310 310 316 321 313 262 14 35 150 148 169 224 188 186 191 206 241 180 156 154 114 57 104 156 166 154 132 146 147 98 132 146 151 154 164
334 334 334 332 328 325 322 320 319 314 303 296 304 316 284 226 54 52 146 162 177 180 184 189 193 200 210 154 159 177 67 108 100 137 171 143 162 102 144 113 133 145 155 161 166
334 331 331 331 331 327 323 318 315 310 294 280 273 286 262 228 31 122 148 170 162 181 180 214 214 237 192 192 261 344 313 306 251 158 160 198 168 189 132 138 141 156 164 165 165
331 331 327 329 330 329 324 320 315 310 286 247 236 237 240 28 91 145 162 170 187 212 202 226 275 223 176 171 59 97 0 253 235 207 196 218 181 201 142 154 153 166 171 168 169
334 333 327 329 329 329 327 322 315 317 202 201 214 220 60 133 125 169 174 153 187 194 272 225 242 245 251 57 182 156 261 252 157 194 178 228 153 151 160 163 163 167 173 172 175
335 331 330 325 326 325 323 320 311 92 173 184 224 252 120 137 201 169 190 168 159 171 150 164 203 236 195 212 184 201 191 229 152 180 159 222 127 138 170 177 170 170 174 178 176
335 332 327 324 327 327 319 281 147 157 195 242 274 228 164 142 128 151 178 178 167 149 141 169 208 211 222 214 196 205 215 179 194 156 216 194 202 142 183 181 175 178 178 182 184
333 331 325 325 326 329 309 204 211 181 207 323 40 345 124 140 164 183 177 189 179 202 182 194 211 212 201 224 333 163 232 201 130 121 259 223 204 169 184 198 180 188 184 187 190
334 331 326 327 326 322 277 322 47 356 280 211 271 275 269 227 151 155 182 192 197 196 184 179 222 198 14 188 225 213 179 193 164 173 273 185 226 165 191 206 196 196 189 190 188
332 330 325 324 320 284 315 55 351 221 248 130 198 211 145 205 152 152 188 187 201 194 203 215 189 133 208 194 212 222 224 191 238 178 235 243 231 210 202 206 197 205 197 192 191
330 328 327 323 293 357 201 27 304 231 230 125 169 135 171 228 150 151 186 182 195 205 198 227 122 195 201 220 223 219 215 239 231 245 233 196 256 207 194 203 206 198 197 195 192
326 324 325 321 323 220 69 318 258 224 202 145 138 97 178 242 127 161 169 194 186 171 212 158 194 196 210 205 219 241 161 222 225 229 254 193 250 217 185 214 209 209 201 197 193
322 321 323 210 228 299 307 287 227 239 135 146 146 177 178 181 126 145 170 174 82 166 219 133 146 226 229 169 211 249 205 215 229 247 235 236 244 245 213 221 221 205 206 201 196
321 322 291 267 70 331 302 223 222 266 151 148 157 183 182 156 130 172 171 165 174 175 181 185 194 166 224 182 194 210 207 205 217 219 240 233 221 240 16 235 249 199 203 204 203
323 319 172 278 257 308 239 225 248 125 141 133 155 175 166 168 124 158 167 155 128 294 153 204 186 201 184 229 198 207 220 234 215 228 221 179 222 240 243 261 271 236 215 201 204
314 186 211 88 215 232 239 225 87 146 146 157 159 173 149 157 183 165 95 87 74 349 317 182 159 167 214 213 235 183 228 244 280 256 278 190 212 255 179 234 235 232 200 200 199
316 258 88 22 182 241 238 1 160 357 207 191 171 256 166 157 191 196 176 63 101 14 272 79 188 174 151 201 212 271 255 200 229 246 233 238 235 231 210 221 211 242 219 212 204
249 228 97 232 262 226 233 98 143 97 251 279 150 137 123 136 166 150 131 102 13 227 253 263 263 140 188 209 201 191 229 241 267 225 238 237 209 234 288 45 321 291 293 251 231
294 230 112 256 225 228 199 182 237 134 145 109 78 77 101 130 121 115 134 46 4 287 212 50 274 214 161 76 281 291 297 269 225 217 245 290 304 65 70 45 1 16 2 335 284
305 304 147 245 240 196 146 152 86 177 34 139 106 56 117 121 141 139 138 91 32 261 264 79 228 212 183 163 186 233 167 260 262 282 244 217 225 90 73 39 45 34 33 26 3
279 233 174 220 296 263 182 177 150 84 88 69 109 121 130 119 40 153 139 104 69 65 347 231 234 279 321 25 359 173 198 261 284 245 236 229 219 100 52 20 29 23 39 53 38
241 207 346 198 197 219 209 180 173 157 120 166 143 182 170 150 163 160 159 146 122 136 222 278 240 258 293 302 291 261 252 255 262 290 284 51 262 61 29 13 355 10 31 43 46
291 272 189 256 202 217 182 201 196 142 184 161 189 137 146 208 297 173 173 223 85 136 198 227 187 263 242 231 253 261 259 250 259 263 261 275 271 31 32 22 1 3 16 28 27
95 277 284 156 206 214 196 175 176 147 80 112 134 149 150 96 77 77 70 85 100 239 172 227 215 237 247 163 270 251 242 240 259 260 272 260 30 338 280 50 359 349 356 5 13